This is the latest recevied weather packets stored in our database for station/object KD5VOO. If no packets are shown the sender has not sent any weather packets the latest 10 day(s).
| Time | Temp. | Humidity | Pressure | Rain* | Wind** | Luminosity | Snow |
|---|---|---|---|---|---|---|---|
| 1777901204 | 18.33° C | 59% | 1014.9 hPa | 0 mm | - | 52 W/m² | - |
| 1777900901 | 17.78° C | 60% | 1015.3 hPa | 0 mm | - | 46 W/m² | - |
| 1777900599 | 17.78° C | 60% | 1015.3 hPa | 0 mm | - | 41 W/m² | - |
| 1777900296 | 17.22° C | 61% | 1015.3 hPa | 0 mm | - | 36 W/m² | - |
| 1777899992 | 16.67° C | 61% | 1015.3 hPa | 0 mm | - | 32 W/m² | - |
| 1777899689 | 16.11° C | 62% | 1015.3 hPa | 0 mm | - | 28 W/m² | - |
| 1777899386 | 15.56° C | 62% | 1014.9 hPa | 0 mm | - | 24 W/m² | - |
| 1777899084 | 15° C | 63% | 1015.3 hPa | 0 mm | - | 22 W/m² | - |
| 1777898781 | 14.44° C | 64% | 1015.3 hPa | 0 mm | - | 19 W/m² | - |
| 1777898478 | 13.89° C | 65% | 1014.9 hPa | 0 mm | - | 18 W/m² | - |
| 1777898176 | 13.89° C | 66% | 1015.3 hPa | 0 mm | - | 17 W/m² | - |
| 1777897873 | 13.33° C | 68% | 1015.3 hPa | 0 mm | - | 17 W/m² | - |
| 1777897569 | 12.78° C | 71% | 1015.3 hPa | 0 mm | - | 16 W/m² | - |
| 1777897265 | 12.22° C | 72% | 1014.9 hPa | 0 mm | - | 14 W/m² | - |
| 1777896961 | 12.22° C | 72% | 1014.9 hPa | 0 mm | - | 13 W/m² | - |
| 1777896658 | 11.67° C | 73% | 1014.9 hPa | 0 mm | - | 12 W/m² | - |
| 1777896355 | 11.67° C | 73% | 1014.9 hPa | 0 mm | - | 11 W/m² | - |
| 1777896053 | 11.11° C | 73% | 1015.3 hPa | 0 mm | - | 9 W/m² | - |
| 1777895750 | 11.11° C | 73% | 1014.9 hPa | 0 mm | - | 8 W/m² | - |
| 1777895447 | 10.56° C | 73% | 1014.9 hPa | 0 mm | - | 7 W/m² | - |
| 1777895145 | 10.56° C | 74% | 1014.9 hPa | 0 mm | - | 6 W/m² | - |
| 1777894842 | 10.56° C | 74% | 1014.6 hPa | 0 mm | - | 5 W/m² | - |
| 1777894539 | 10.56° C | 74% | 1014.6 hPa | 0 mm | - | 3 W/m² | - |
| 1777894237 | 10.56° C | 73% | 1014.6 hPa | 0 mm | - | 1 W/m² | - |
| 1777893933 | 10.56° C | 73% | 1014.6 hPa | 0 mm | - | 0 W/m² | - |
* Rain latest hour (hover to see other rain measurements)
** Current wind speed in m/s (hover to see current wind gust speed)